KC1TEM-13 Weather Reports


time (UTC)temp
F
wind
direction
speed
knots
gust
knots
rain 1hr
in
rain 24hr
in
rain mn
in
humidity
%
barometer
mb
20260507095415 48 29 0.0 1.7 0.00 0.02 0.02 86 1008.0
20260507094912 48 20 1.7 3.5 0.00 0.02 0.02 85 1007.6
20260507094408 48 88 0.0 2.6 0.00 0.02 0.02 86 1007.7
20260507093905 48 5 0.9 1.7 0.00 0.02 0.02 87 1007.9
20260507093404 48 47 0.0 2.6 0.00 0.02 0.02 87 1007.7
20260507092902 48 35 0.0 1.7 0.00 0.02 0.02 88 1007.7
20260507092357 48 81 0.0 1.7 0.00 0.02 0.02 89 1007.8
20260507091854 48 357 1.7 2.6 0.00 0.02 0.02 89 1007.8
20260507091350 48 13 0.9 1.7 0.00 0.02 0.02 90 1007.9
20260507090846 48 53 0.0 1.7 0.00 0.02 0.02 91 1007.8
20260507090343 48 14 0.9 1.7 0.00 0.02 0.02 91 1007.5
20260507085840 48 89 1.7 1.7 0.00 0.02 0.02 91 1007.4
20260507085336 48 22 0.0 0.9 0.00 0.02 0.02 90 1007.5
20260507084834 48 37 0.0 1.7 0.00 0.02 0.02 90 1007.6
20260507084330 48 231 0.9 1.7 0.00 0.02 0.02 89 1007.7
20260507083828 48 58 0.0 1.7 0.00 0.02 0.02 89 1007.3
20260507083324 48 87 0.0 0.0 0.00 0.02 0.02 88 1007.6
20260507082820 48 48 0.0 1.7 0.00 0.02 0.02 88 1007.2
20260507082316 48 55 0.0 1.7 0.02 0.02 0.02 88 1007.5
20260507081814 49 16 0.9 1.7 0.02 0.02 0.02 89 1007.5
20260507081309 49 55 0.0 1.7 0.02 0.02 0.02 87 1007.3
20260507080806 49 40 0.0 0.9 0.02 0.02 0.02 87 1007.3
20260507080302 50 69 1.7 1.7 0.00 0.01 0.01 86 1007.7
20260507075757 50 39 0.9 1.7 0.00 0.01 0.01 85 1007.5
20260507075254 50 5 0.9 1.7 0.00 0.01 0.01 85 1007.8
20260507074750 50 232 2.6 3.5 0.00 0.01 0.01 84 1007.6
20260507074249 50 60 0.0 1.7 0.00 0.01 0.01 86 1007.6
20260507073745 50 78 0.0 2.6 0.00 0.01 0.01 84 1007.0
20260507073241 50 57 0.0 1.7 0.00 0.01 0.01 85 1007.2
20260507072739 50 21 0.9 1.7 0.00 0.01 0.01 84 1007.2
20260507072237 50 48 0.0 2.6 0.00 0.01 0.01 85 1006.9
20260507071734 50 11 1.7 1.7 0.00 0.01 0.01 84 1007.0
20260507071230 50 57 1.7 2.6 0.00 0.01 0.01 84 1007.3
20260507070727 50 55 0.0 2.6 0.00 0.01 0.01 84 1007.2
20260507070224 50 17 0.0 2.6 0.00 0.01 0.01 86 1007.1
20260507065721 50 18 1.7 1.7 0.00 0.01 0.01 86 1006.8
20260507065218 50 13 0.9 2.6 0.00 0.01 0.01 86 1006.9
20260507064715 51 89 0.0 2.6 0.00 0.01 0.01 88 1006.9
20260507064214 51 5 1.7 1.7 0.00 0.01 0.01 88 1006.9
20260507063711 51 46 1.7 1.7 0.00 0.01 0.01 89 1006.9
20260507063207 51 357 0.9 1.7 0.00 0.01 0.01 88 1006.4
20260507062704 51 226 1.7 1.7 0.00 0.01 0.01 87 1006.7
20260507062202 51 0 0.9 1.7 0.00 0.01 0.01 88 1006.4
20260507061700 51 111 0.0 0.9 0.00 0.01 0.01 88 1006.7
20260507061157 51 4 0.9 1.7 0.00 0.01 0.01 89 1006.7
20260507060655 51 359 1.7 2.6 0.00 0.01 0.01 89 1006.8
20260507060151 51 93 0.9 1.7 0.00 0.01 0.01 89 1006.9
20260507055647 51 240 0.0 2.6 0.00 0.01 0.01 90 1006.8
20260507055143 52 0 1.7 1.7 0.00 0.01 0.01 91 1007.1
20260507054639 52 279 0.9 1.7 0.00 0.01 0.01 92 1007.1
20260507054136 52 354 0.0 1.7 0.00 0.01 0.01 92 1007.1
20260507053634 52 349 0.0 1.7 0.00 0.01 0.01 93 1007.2
20260507053132 52 23 0.9 2.6 0.00 0.01 0.01 92 1006.9
20260507052630 52 32 1.7 1.7 0.00 0.01 0.01 92 1007.2
20260507052126 52 58 0.0 1.7 0.00 0.01 0.01 92 1007.4
20260507051624 52 226 0.0 1.7 0.00 0.01 0.01 92 1007.3
20260507051121 52 89 0.0 1.7 0.00 0.01 0.01 92 1007.1
20260507050618 52 177 0.0 1.7 0.00 0.01 0.01 92 1007.0
20260507050114 53 4 1.7 1.7 0.00 0.01 0.01 92 1006.9
20260507045611 53 321 0.0 1.7 0.00 0.01 0.01 93 1006.9
20260507045108 53 82 0.0 0.9 0.00 0.01 0.01 93 1006.9
20260507044604 53 37 0.0 1.7 0.00 0.01 0.01 93 1006.7
20260507044102 53 38 1.7 1.7 0.00 0.01 0.01 94 1006.7
20260507043557 53 238 0.0 1.7 0.00 0.01 0.01 93 1006.9
20260507043055 53 357 0.0 1.7 0.02 0.01 0.01 93 1007.0
20260507042550 53 14 0.9 2.6 0.02 0.01 0.01 92 1007.1
20260507042046 54 5 1.7 1.7 0.02 0.01 0.01 92 1007.3
20260507041543 54 4 0.0 1.7 0.05 0.01 0.01 91 1007.4
20260507041040 55 55 0.9 1.7 0.00 0.00 0.00 91 1007.2
20260507040536 55 320 0.0 1.7 0.00 0.00 0.00 90 1006.9
20260507040032 55 330 1.7 2.6 0.00 0.32 0.32 90 1007.0
20260507035529 56 353 0.9 3.5 0.00 0.32 0.32 91 1006.6
20260507035025 56 336 1.7 3.5 0.00 0.32 0.32 92 1006.8
20260507034522 56 331 0.9 1.7 0.00 0.32 0.32 92 1006.3
20260507034020 57 13 0.9 1.7 0.00 0.32 0.32 92 1006.1
20260507033518 57 340 1.7 2.6 0.00 0.32 0.32 92 1006.1
20260507033015 58 61 0.9 2.6 0.00 0.32 0.32 93 1006.0
20260507032512 59 18 0.9 3.5 0.00 0.32 0.32 94 1006.1
20260507032008 59 348 1.7 1.7 0.05 0.32 0.32 96 1005.7
20260507031504 59 83 0.0 1.7 0.05 0.32 0.32 95 1005.9
20260507031002 59 353 1.7 1.7 0.00 0.31 0.31 95 1005.8
20260507030458 59 129 0.0 2.6 0.00 0.31 0.31 95 1005.8
20260507025955 59 243 0.0 0.9 0.00 0.31 0.31 95 1005.3
20260507025453 59 135 1.7 2.6 0.00 0.31 0.31 94 1005.6
20260507024950 59 203 0.0 1.7 0.00 0.31 0.31 94 1005.7
20260507024448 59 323 2.6 2.6 0.00 0.31 0.31 94 1005.7
20260507023943 59 211 0.0 1.7 0.00 0.31 0.31 94 1005.7
20260507023440 59 93 0.0 1.7 0.00 0.31 0.31 94 1005.7
20260507022938 59 226 4.3 5.2 0.00 0.31 0.31 94 1005.2
20260507022435 59 116 0.0 1.7 0.00 0.31 0.31 94 1005.6
20260507021930 59 218 1.7 2.6 0.00 0.31 0.31 94 1005.3
20260507021425 59 157 1.7 3.5 0.00 0.31 0.31 94 1005.5
20260507020924 59 224 0.9 2.6 0.00 0.31 0.31 94 1005.2
20260507020420 59 136 0.0 2.6 0.00 0.31 0.31 94 1005.3
20260507015917 59 301 0.0 1.7 0.00 0.31 0.31 94 1005.7
20260507015415 59 186 1.7 1.7 0.00 0.31 0.31 94 1005.7
20260507014912 59 197 0.0 2.6 0.00 0.31 0.31 94 1005.5
20260507014408 59 169 0.0 1.7 0.00 0.31 0.31 94 1005.8
20260507013904 59 223 1.7 2.6 0.00 0.31 0.31 94 1005.5
20260507013402 59 211 1.7 3.5 0.00 0.31 0.31 94 1005.8
20260507012859 59 180 2.6 3.5 0.00 0.31 0.31 94 1005.8
20260507012355 59 215 2.6 2.6 0.00 0.31 0.31 94 1005.8
20260507011853 59 198 1.7 1.7 0.00 0.31 0.31 94 1005.6
20260507011350 59 139 0.0 2.6 0.00 0.31 0.31 94 1005.8
20260507010849 59 218 1.7 4.3 0.00 0.31 0.31 94 1005.7
20260507010345 59 54 0.0 3.5 0.00 0.31 0.31 94 1005.7
20260507005842 59 243 0.9 4.3 0.00 0.31 0.31 94 1005.8
20260507005339 59 203 0.0 3.5 0.00 0.31 0.31 94 1005.9
20260507004836 59 176 1.7 3.5 0.00 0.31 0.31 94 1005.6
20260507004333 59 70 0.0 3.5 0.00 0.31 0.31 94 1005.7
20260507003830 59 127 1.7 3.5 0.00 0.31 0.31 94 1005.8
20260507003325 59 203 1.7 3.5 0.00 0.31 0.31 94 1005.6
20260507002820 59 190 1.7 2.6 0.00 0.31 0.31 94 1005.6
20260507002317 59 150 1.7 3.5 0.00 0.31 0.31 95 1005.6
20260507001815 59 223 3.5 4.3 0.00 0.31 0.31 95 1005.6
20260507001312 59 180 1.7 4.3 0.00 0.31 0.31 95 1005.6
20260507000808 59 161 0.0 2.6 0.00 0.31 0.31 95 1005.4
20260507000306 59 207 0.9 3.5 0.00 0.31 0.31 95 1005.7
20260506235800 59 191 2.6 3.5 0.02 0.31 0.31 95 1005.4
20260506235256 59 166 1.7 3.5 0.02 0.31 0.31 95 1005.5
20260506234753 59 184 2.6 3.5 0.00 0.30 0.30 95 1005.3
20260506234250 59 136 1.7 1.7 0.02 0.30 0.30 95 1005.3
20260506233748 59 188 1.7 2.6 0.05 0.30 0.30 95 1005.4
20260506233244 59 215 1.7 5.2 0.12 0.30 0.30 95 1005.6
20260506232741 59 198 1.7 3.5 0.14 0.29 0.29 95 1005.4
20260506232235 59 209 0.9 4.3 0.07 0.28 0.28 94 1005.2
20260506231733 60 247 1.7 1.7 0.02 0.27 0.27 94 1005.6
20260506231231 60 262 2.6 3.5 0.07 0.26 0.26 94 1005.7
20260506230728 60 200 2.6 2.6 0.07 0.26 0.26 94 1005.7
20260506230225 60 198 1.7 4.3 0.07 0.25 0.25 94 1005.9
20260506225721 60 167 0.9 1.7 0.09 0.24 0.24 94 1005.7
20260506225218 60 192 1.7 3.5 0.09 0.24 0.24 94 1005.5
20260506224714 60 199 0.9 3.5 0.09 0.23 0.23 94 1005.7
20260506224212 60 210 1.7 3.5 0.14 0.22 0.22 94 1005.9
20260506223708 60 180 0.0 3.5 0.09 0.21 0.21 94 1005.8
20260506223204 60 136 0.0 5.2 0.05 0.20 0.20 94 1005.9
20260506222701 60 192 1.7 3.5 0.05 0.19 0.19 94 1005.6
20260506222156 60 180 1.7 4.3 0.05 0.19 0.19 93 1005.6
20260506221655 60 177 1.7 3.5 0.02 0.18 0.18 93 1006.0
20260506221153 60 195 2.6 3.5 0.00 0.18 0.18 92 1006.0
20260506220649 60 202 1.7 6.1 0.00 0.18 0.18 92 1006.1
20260506220144 60 273 1.7 5.2 0.00 0.18 0.18 93 1006.3
20260506215641 60 224 0.0 3.5 0.00 0.18 0.18 93 1005.9
20260506215136 60 31 1.7 2.6 0.00 0.18 0.18 93 1006.2
20260506214634 60 139 1.7 4.3 0.02 0.18 0.18 92 1006.0
20260506214131 60 196 0.9 5.2 0.00 0.18 0.18 92 1006.3
20260506213629 60 165 1.7 4.3 0.00 0.18 0.18 93 1006.3
20260506213126 60 83 0.0 1.7 0.02 0.18 0.18 93 1006.4
20260506212624 60 156 1.7 2.6 0.05 0.18 0.18 93 1006.6
20260506212118 61 131 1.7 2.6 0.05 0.17 0.17 92 1006.4
20260506211614 61 203 0.9 5.2 0.05 0.17 0.17 91 1006.7
20260506211111 61 162 0.9 3.5 0.09 0.17 0.17 91 1007.0
20260506210608 61 216 2.6 3.5 0.09 0.16 0.16 91 1006.8
20260506210104 61 201 4.3 4.3 0.09 0.15 0.15 92 1006.7
20260506205601 61 193 1.7 1.7 0.07 0.14 0.14 91 1006.9
20260506205056 61 130 0.0 3.5 0.07 0.13 0.13 91 1006.8
20260506204554 61 209 1.7 2.6 0.07 0.13 0.13 91 1007.0
20260506204051 62 25 0.0 2.6 0.07 0.12 0.12 90 1006.9
20260506203550 62 216 1.7 2.6 0.09 0.11 0.11 90 1007.0
20260506203046 62 166 1.7 2.6 0.12 0.11 0.11 89 1006.9
20260506202544 62 184 1.7 3.5 0.09 0.09 0.09 89 1006.7
20260506202040 62 247 0.9 3.5 0.07 0.09 0.09 88 1006.9
20260506201538 62 206 0.9 1.7 0.12 0.08 0.08 88 1006.7
20260506201034 63 178 0.0 3.5 0.09 0.07 0.07 86 1006.8
20260506200530 63 125 2.6 3.5 0.02 0.06 0.06 85 1006.7
20260506200027 63 203 3.5 3.5 0.05 0.06 0.06 85 1006.8
20260506195524 63 130 0.0 1.7 0.05 0.06 0.06 84 1006.6
20260506195020 64 182 0.0 3.5 0.05 0.05 0.05 83 1006.7
20260506194518 64 174 1.7 2.6 0.05 0.05 0.05 81 1006.9
20260506194014 64 171 1.7 4.3 0.05 0.04 0.04 81 1006.7
20260506193511 65 191 1.7 2.6 0.05 0.04 0.04 80 1006.9
20260506193008 65 206 0.0 3.5 0.05 0.04 0.04 76 1006.6
20260506192505 66 173 0.9 1.7 0.07 0.03 0.03 74 1006.9
20260506192001 67 152 1.7 3.5 0.02 0.02 0.02 71 1007.0
20260506191458 67 225 0.9 3.5 0.02 0.02 0.02 69 1006.9
20260506190954 68 220 0.9 4.3 0.02 0.02 0.02 66 1006.9
20260506190452 68 238 3.5 5.2 0.02 0.02 0.02 66 1007.1
20260506185948 69 186 0.9 2.6 0.00 0.01 0.01 65 1006.9
20260506185445 69 245 3.5 5.2 0.02 0.01 0.01 62 1006.8
20260506184942 69 230 1.7 2.6 0.00 0.01 0.01 62 1006.7
20260506184439 69 201 0.9 2.6 0.00 0.01 0.01 62 1006.9
20260506183936 69 209 1.7 3.5 0.00 0.01 0.01 60 1006.9
20260506183431 69 218 0.0 1.7 0.00 0.01 0.01 62 1006.8
20260506182929 69 56 0.9 2.6 0.02 0.01 0.01 61 1006.9
20260506182426 69 207 2.6 2.6 0.02 0.01 0.01 61 1006.9
20260506181923 69 224 0.0 1.7 0.02 0.00 0.00 62 1006.9
20260506181422 71 145 0.9 5.2 0.02 0.00 0.00 58 1006.9
20260506180918 72 194 3.5 7.8 0.00 0.00 0.00 52 1006.7
20260506180414 73 170 1.7 6.1 0.00 0.00 0.00 51 1006.9
20260506175911 73 171 1.7 7.8 0.00 0.00 0.00 51 1006.9
20260506175408 73 206 3.5 3.5 0.00 0.00 0.00 51 1006.9
20260506174904 73 176 1.7 5.2 0.00 0.00 0.00 51 1006.8
20260506174402 73 183 3.5 12.2 0.00 0.00 0.00 50 1007.0
20260506173900 73 210 2.6 4.3 0.00 0.00 0.00 50 1006.9
20260506173356 74 202 3.5 11.3 0.00 0.00 0.00 48 1007.1
20260506172853 75 192 3.5 9.6 0.00 0.00 0.00 47 1006.9
20260506172350 75 217 2.6 7.8 0.00 0.00 0.00 48 1006.9
20260506171847 74 232 6.1 9.6 0.00 0.00 0.00 48 1007.0
20260506171344 74 153 2.6 4.3 0.00 0.00 0.00 48 1007.1
20260506170842 74 243 1.7 5.2 0.00 0.00 0.00 49 1007.3
20260506170338 73 268 1.7 7.8 0.00 0.00 0.00 50 1007.2
20260506165837 73 274 0.9 5.2 0.00 0.00 0.00 51 1007.4
20260506165335 73 222 3.5 7.8 0.00 0.00 0.00 50 1007.6
20260506164831 72 181 3.5 5.2 0.00 0.00 0.00 51 1007.5
20260506164328 73 155 2.6 6.1 0.00 0.00 0.00 50 1007.8
20260506163825 73 290 3.5 5.2 0.00 0.00 0.00 51 1007.7
20260506163320 73 148 0.0 3.5 0.00 0.00 0.00 52 1007.6
20260506162815 73 209 0.9 3.5 0.00 0.00 0.00 53 1007.8
20260506162314 72 238 0.9 1.7 0.00 0.00 0.00 54 1007.8
20260506161811 72 208 0.0 3.5 0.00 0.00 0.00 53 1008.0
20260506161308 72 183 2.6 3.5 0.00 0.00 0.00 53 1008.0
20260506160806 72 181 1.7 3.5 0.00 0.00 0.00 55 1008.2
20260506160302 72 243 1.7 4.3 0.00 0.00 0.00 55 1008.4
20260506155801 72 184 2.6 5.2 0.00 0.00 0.00 54 1008.3
20260506155257 72 202 5.2 5.2 0.00 0.00 0.00 55 1008.6
20260506153404 71 238 4.3 5.2 0.00 0.00 0.00 56 1008.8
20260506152901 71 202 4.3 7.8 0.00 0.00 0.00 56 1009.1
20260506152358 71 245 1.7 3.5 0.00 0.00 0.00 58 1008.9
20260506151856 71 267 2.6 3.5 0.00 0.00 0.00 57 1009.2
20260506151353 71 167 1.7 4.3 0.00 0.00 0.00 58 1008.8
20260506150851 71 151 0.9 4.3 0.00 0.00 0.00 58 1009.1
20260506150347 71 213 0.0 3.5 0.00 0.00 0.00 58 1009.2
20260506145844 70 183 2.6 2.6 0.00 0.00 0.00 59 1009.2
20260506145340 70 218 0.0 3.5 0.00 0.00 0.00 60 1009.2
20260506144838 70 179 1.7 5.2 0.00 0.00 0.00 60 1009.2
20260506144334 70 245 0.9 6.1 0.00 0.00 0.00 59 1008.9
20260506143833 69 173 0.9 4.3 0.00 0.00 0.00 60 1009.1
20260506143329 69 209 5.2 6.1 0.00 0.00 0.00 60 1009.0
20260506142828 69 204 2.6 5.2 0.00 0.00 0.00 61 1008.9
20260506142325 70 161 0.9 5.2 0.00 0.00 0.00 60 1008.7
20260506141823 69 169 2.6 5.2 0.00 0.00 0.00 60 1008.7
20260506141321 69 136 0.0 5.2 0.00 0.00 0.00 62 1008.9
20260506140819 69 253 1.7 2.6 0.00 0.00 0.00 62 1009.0
20260506140315 69 128 0.0 3.5 0.00 0.00 0.00 63 1008.9
20260506135813 68 199 0.0 3.5 0.00 0.00 0.00 64 1009.0
20260506135309 67 201 2.6 5.2 0.00 0.00 0.00 65 1009.2
20260506134805 67 198 2.6 8.7 0.00 0.00 0.00 65 1009.3
20260506134302 67 203 1.7 4.3 0.00 0.00 0.00 65 1009.3
20260506133759 67 224 0.0 4.3 0.00 0.00 0.00 66 1009.6
20260506133256 66 194 2.6 3.5 0.00 0.00 0.00 66 1009.5
20260506132752 67 233 1.7 3.5 0.00 0.00 0.00 66 1009.7
20260506132250 66 149 1.7 3.5 0.00 0.00 0.00 66 1009.5
20260506131748 66 254 1.7 5.2 0.00 0.00 0.00 67 1009.5
20260506131243 66 203 2.6 3.5 0.00 0.00 0.00 67 1009.3
20260506130740 66 116 1.7 3.5 0.00 0.00 0.00 67 1009.5
20260506130237 66 203 4.3 6.1 0.00 0.00 0.00 67 1009.5
20260506125735 66 265 0.9 5.2 0.00 0.00 0.00 67 1009.7
20260506125233 66 185 2.6 2.6 0.00 0.00 0.00 67 1009.5
20260506124731 66 164 1.7 4.3 0.00 0.00 0.00 67 1009.4
20260506124228 66 172 1.7 5.2 0.00 0.00 0.00 67 1009.4
20260506123726 66 238 0.9 3.5 0.00 0.00 0.00 67 1009.6
20260506123224 66 178 1.7 3.5 0.00 0.00 0.00 67 1009.7
20260506122721 66 181 1.7 6.1 0.00 0.00 0.00 66 1009.6
20260506122218 67 188 4.3 5.2 0.00 0.00 0.00 65 1009.8
20260506121716 66 109 1.7 5.2 0.00 0.00 0.00 68 1009.7
20260506121212 64 173 0.9 5.2 0.00 0.00 0.00 69 1009.6
20260506120710 64 198 2.6 4.3 0.00 0.00 0.00 70 1009.8
20260506120208 64 195 1.7 4.3 0.00 0.00 0.00 70 1009.8
20260506115706 64 149 0.9 5.2 0.00 0.00 0.00 70 1009.9
20260506115203 64 229 2.6 7.0 0.00 0.00 0.00 70 1009.9
20260506114701 64 225 1.7 5.2 0.00 0.00 0.00 70 1009.8
20260506114158 64 230 0.9 5.2 0.00 0.00 0.00 70 1009.8
20260506113657 64 132 1.7 6.1 0.00 0.00 0.00 70 1009.9
20260506113154 63 172 2.6 4.3 0.00 0.00 0.00 70 1009.7
20260506112649 63 232 1.7 1.7 0.00 0.00 0.00 71 1010.1
20260506112148 63 182 1.7 12.2 0.00 0.00 0.00 70 1010.0
20260506111645 63 201 2.6 5.2 0.00 0.00 0.00 71 1009.8
20260506111142 63 202 2.6 4.3 0.00 0.00 0.00 71 1009.7
20260506110639 63 271 1.7 4.3 0.00 0.00 0.00 72 1009.9
20260506110137 62 202 2.6 3.5 0.00 0.00 0.00 72 1010.1
20260506105633 62 201 0.9 3.5 0.00 0.00 0.00 72 1009.9
20260506105130 62 238 2.6 4.3 0.00 0.00 0.00 72 1010.1
20260506104629 62 200 2.6 3.5 0.00 0.00 0.00 72 1010.0
20260506104126 62 161 0.0 2.6 0.00 0.00 0.00 72 1009.8
20260506103623 62 150 1.7 3.5 0.00 0.00 0.00 72 1009.9
20260506103120 62 189 2.6 3.5 0.00 0.00 0.00 72 1009.9
20260506102618 62 188 1.7 3.5 0.00 0.00 0.00 72 1009.8
20260506102115 62 199 2.6 5.2 0.00 0.00 0.00 72 1010.0
20260506101612 62 195 3.5 3.5 0.00 0.00 0.00 72 1010.1
20260506101108 62 96 1.7 3.5 0.00 0.00 0.00 72 1010.0
20260506100607 62 128 1.7 2.6 0.00 0.00 0.00 72 1009.7
20260506100105 62 194 1.7 3.5 0.00 0.00 0.00 71 1010.1